Location: Capvern
(43.1036°N, 0.3160°E)
Time: 03:12:51
(UTC+00:00)

Feng Yun 1-1 Rocket - Pass Details

Date: 16 October 2021
Orbit: 830 x 933 km, 99.2° (Epoch: 02 December)

Event Time Altitude Azimuth Distance (km) Brightness Sun altitude
Rises 18:44:10 0° 169° (SSE) 3,381 7.2 -17.2°
Reaches altitude 10° 18:46:30 10° 171° (S) 2,461 6.5 -17.6°
Maximum altitude 18:51:57 75° 256° (WSW) 894 4.4 -18.6°
Drops below altitude 10° 18:57:35 10° 342° (NNW) 2,541 7.0 -19.6°
Sets 19:00:02 0° 345° (NNW) 3,500 7.7 -20.1°
